Simultaneous Nadir Overpasses (SNOs) Predictions

Prediction of SNOs between TERRA and METOP-C Satellite Orbit:

Table of predicted SNOs for the next 14.0 days since TLE Epoch: 3/19/2022
Index Date (TERRA) Time (TERRA) Lat,Lon (TERRA) SZA (TERRA ) Date (METOP-C) Time (METOP-C) Lat,Lon (METOP-C) SZA (METOP-C ) Distance(km) Time Diff (sec)
1 03/20/2022 10:51:54 -81.19,-120.81 96.68 03/20/2022 10:51:47 -81.19,-120.98 96.70 2.99 7
2 03/20/2022 11:41:19 81.22, 47.29 83.38 03/20/2022 11:42:25 81.22, 47.21 83.40 1.50 66
3 03/23/2022 05:36:37 81.19, 137.95 82.25 03/23/2022 05:35:29 81.19, 137.89 82.21 1.13 68
4 03/23/2022 06:26:03 -81.21, -54.12 97.73 03/23/2022 06:26:09 -81.20, -54.30 97.75 3.03 6
5 03/26/2022 01:10:46 81.20,-155.48 81.18 03/26/2022 01:09:51 81.20,-155.43 81.17 0.92 55
6 03/26/2022 02:00:13 -81.19, 12.10 98.84 03/26/2022 02:00:32 -81.20, 11.97 98.84 2.28 19
7 03/28/2022 20:44:54 81.20, -89.00 80.11 03/28/2022 20:44:13 81.19, -89.17 80.07 3.01 41
8 03/28/2022 21:34:21 -81.20, 78.61 99.91 03/28/2022 21:34:53 -81.20, 78.58 99.89 0.68 32
9 03/31/2022 16:19:03 81.20, -22.61 79.04 03/31/2022 16:18:35 81.20, -22.56 79.03 0.89 28



Historial Predications of SNOs between TERRA and METOP-C
